Theta_e
323 323 326 326 325 324 324 324 324 324 325 325 325 324 325 326 327 332 338 342 345 346 345 344 346 348 344 347 354 358 356 355 353 352 354 352 351 351 350 348 348 349 347 346
323 326 324 322 322 322 323 323 324 325 324 324 324 324 325 326 332 335 338 340 342 343 342 339 340 341 344 349 352 355 358 356 356 354 354 352 351 350 350 349 350 348 347 345
325 324 321 322 324 323 325 325 324 323 323 323 324 325 325 327 332 333 335 337 337 338 337 336 333 332 332 336 341 350 354 356 356 356 355 354 352 351 350 349 349 349 347 346
324 322 321 322 322 322 324 324 322 321 323 322 323 322 325 328 332 333 333 335 334 335 331 328 327 327 328 327 329 340 344 351 353 354 355 353 353 352 350 348 346 348 348 349
325 323 322 323 324 322 321 322 320 321 322 322 321 322 324 329 331 333 332 333 333 331 328 325 323 322 323 326 326 326 328 334 340 350 352 351 353 353 352 351 351 349 352 351
323 323 321 322 322 322 321 320 322 322 322 322 322 322 331 331 334 330 330 331 331 329 328 322 321 320 319 323 324 325 324 325 326 329 336 336 335 341 341 342 348 350 347 349
325 324 323 321 322 323 322 323 324 322 323 325 327 325 334 332 329 329 330 330 329 328 326 324 324 321 320 320 320 320 322 323 323 323 325 328 329 331 332 332 334 334 337 339
323 325 324 322 321 322 322 322 322 321 322 322 326 322 334 329 328 327 328 329 328 326 324 322 320 319 318 321 322 317 318 319 319 320 322 323 324 325 327 330 328 329 324 326
326 325 322 321 321 321 322 324 327 325 321 320 320 329 332 327 327 326 327 329 327 326 323 322 320 320 319 318 319 321 321 320 319 319 319 319 320 323 324 323 322 324 327 328
324 326 323 321 320 320 321 322 323 325 328 327 322 323 327 330 327 324 325 327 328 325 323 321 319 319 320 315 315 316 316 317 318 317 318 318 319 319 320 320 322 324 323 317
322 324 323 320 320 322 325 324 323 324 325 327 327 325 328 327 325 325 324 325 328 325 324 323 321 319 319 315 313 313 314 313 312 314 315 316 315 315 318 319 319 320 322 322
323 324 325 323 323 322 321 321 322 326 327 326 327 327 324 324 323 321 322 323 325 326 323 322 323 322 320 319 317 314 313 311 311 311 310 310 311 313 315 314 314 316 319 319
323 324 327 325 323 323 323 321 321 323 324 326 327 326 325 323 322 320 319 320 323 327 325 323 323 323 320 320 318 315 313 313 312 311 311 312 312 313 312 315 315 316 314 313
319 323 325 326 325 323 323 321 321 323 325 324 324 323 321 322 321 319 320 321 321 326 326 325 324 323 322 319 316 316 315 314 313 312 312 312 313 313 313 313 313 314 315 315
321 325 323 323 322 321 321 319 319 320 320 322 321 320 320 320 320 319 319 320 320 321 324 325 326 325 323 321 319 317 315 313 313 312 312 312 312 313 313 314 314 314 314 315
322 326 323 322 321 321 320 319 319 318 318 317 317 317 318 318 318 319 320 321 321 321 322 324 326 325 322 320 318 316 315 315 314 314 313 312 312 312 312 313 313 314 314 314
323 324 325 325 322 319 320 318 317 317 316 316 318 319 320 320 319 320 320 321 323 323 324 324 325 324 322 321 317 316 316 316 315 314 313 312 312 311 311 311 312 312 313 314
323 324 323 324 321 324 320 318 316 316 317 317 318 318 318 318 319 319 320 322 324 324 323 322 324 322 320 318 317 316 316 315 315 314 313 312 311 311 311 311 312 313 312 313
321 323 323 327 323 320 318 320 319 320 319 318 318 318 318 318 318 321 322 323 323 322 320 318 318 319 318 317 316 316 316 315 314 313 313 312 311 311 311 311 311 312 312 313
318 320 322 322 324 322 320 319 317 317 318 319 318 318 318 318 318 324 320 320 320 319 318 318 317 316 316 315 315 315 315 314 313 313 312 311 310 311 311 311 310 310 310 311
321 321 324 322 324 320 318 318 318 319 324 321 319 318 317 317 318 319 318 318 318 317 317 316 315 315 314 314 314 314 313 313 312 311 310 310 310 310 310 310 311 310 312 313
321 323 322 321 324 325 319 318 318 324 321 319 318 318 317 317 316 318 318 317 316 315 314 313 313 313 313 312 312 312 312 311 310 309 309 309 310 309 309 311 311 312 312 313
321 319 323 322 322 321 320 320 318 318 318 316 316 316 316 316 315 317 317 316 316 315 314 311 311 311 311 310 309 308 308 307 307 307 307 308 309 310 310 309 310 311 310 311
318 318 318 319 317 316 316 315 315 315 314 314 315 314 314 316 315 317 317 316 314 314 313 311 310 309 308 308 307 307 306 305 305 306 306 307 308 308 308 308 307 308 308 308
316 316 316 316 315 315 314 314 313 313 312 312 312 312 313 316 316 315 314 312 312 310 309 309 308 307 307 307 306 305 305 304 305 305 306 307 307 306 306 306 306 306 306 305
315 315 316 317 315 314 314 313 312 312 312 312 313 315 314 314 314 313 311 310 308 308 307 307 307 306 305 304 303 303 304 305 305 306 306 306 306 305 305 306 306 305 305 304
Wind_Speed
8 12 4 12 9 10 8 5 7 4 3 6 13 11 6 7 4 5 11 9 11 14 20 23 22 24 15 13 7 10 14 17 19 22 20 20 20 20 21 21 19 15 19 18
8 3 5 3 5 7 4 7 8 4 4 8 12 13 11 7 10 7 9 10 12 16 17 18 22 24 24 25 12 11 11 16 19 20 20 20 20 20 19 19 17 17 19 18
8 12 1 7 5 7 8 7 8 9 11 16 16 18 15 12 11 8 9 12 14 15 15 17 22 23 24 24 23 20 16 12 17 20 18 16 16 16 18 18 19 18 18 18
2 5 4 7 6 6 13 6 6 10 11 11 2 7 8 18 15 9 8 12 13 14 14 15 21 24 24 23 21 20 21 7 6 16 19 18 17 18 19 16 19 20 21 19
6 4 4 8 5 6 11 8 12 13 14 14 17 10 1 19 15 8 10 13 13 13 13 15 20 21 22 24 28 29 28 24 16 6 6 8 19 11 4 4 10 15 13 16
7 3 5 8 7 7 10 13 15 16 15 14 20 10 7 6 9 6 10 12 12 11 11 15 17 20 24 21 26 29 34 34 32 27 20 17 23 17 13 14 13 6 3 7
10 13 5 4 10 12 10 12 10 9 10 8 8 6 10 10 8 8 9 10 10 9 10 11 13 17 23 24 22 25 26 29 29 29 30 27 26 21 20 19 18 16 13 13
12 8 8 4 4 9 12 7 8 14 11 9 11 7 9 9 8 7 9 10 7 8 8 11 14 15 17 20 21 21 23 23 24 24 23 23 21 18 19 17 13 11 13 12
9 5 6 0 3 5 10 8 8 9 15 12 16 10 11 8 6 6 4 9 5 6 6 8 11 14 13 16 18 19 18 18 19 18 19 19 18 16 15 13 11 10 8 8
3 10 6 6 6 10 9 9 6 8 7 11 12 9 2 10 5 3 5 5 7 3 7 7 9 10 10 14 13 14 18 16 18 16 16 16 16 16 13 11 11 9 8 6
7 6 3 2 10 8 5 6 7 7 10 8 10 3 7 6 6 5 7 4 9 9 7 6 6 5 8 9 13 11 12 11 15 14 14 13 13 12 11 10 10 9 10 12
7 5 10 14 9 5 10 12 12 8 10 7 10 11 8 5 4 5 8 8 4 9 5 8 7 1 3 6 8 9 10 10 12 11 13 12 11 10 10 9 10 10 11 10
2 5 8 12 10 6 8 8 9 9 9 13 12 10 8 5 10 7 10 10 7 12 12 9 7 6 6 9 8 7 7 9 10 11 10 8 13 13 13 10 9 8 9 8
3 9 11 12 18 13 9 9 12 12 11 14 14 16 12 9 9 11 11 10 12 13 16 15 10 9 7 11 13 8 6 5 4 3 3 5 7 9 12 12 11 10 7 8
4 12 14 16 17 18 16 17 17 19 18 18 18 20 18 16 13 9 10 11 13 11 16 16 11 11 8 11 12 8 7 5 5 4 6 5 8 10 11 11 11 11 10 8
7 11 12 16 15 16 18 19 19 21 21 21 20 20 16 13 5 8 9 12 16 10 7 14 5 12 13 12 8 3 6 7 6 6 8 5 6 8 9 9 11 10 10 11
11 11 12 15 11 8 13 11 12 14 18 17 16 14 8 9 10 11 11 12 14 7 5 5 4 7 12 8 6 7 13 4 7 8 10 9 9 8 8 10 11 10 10 10
12 13 8 12 13 15 5 0 7 9 10 9 8 9 9 8 9 11 5 12 7 8 8 4 6 7 8 8 10 8 7 9 11 11 12 11 11 14 13 12 12 11 12 15
11 10 9 9 10 11 16 9 2 9 10 6 6 7 10 10 8 4 7 9 7 7 3 8 11 9 6 4 4 5 9 11 12 13 15 13 15 16 16 15 15 15 17 16
8 8 10 11 9 8 5 4 3 8 11 10 8 5 9 9 10 6 4 8 6 11 14 10 5 2 5 6 3 8 13 14 15 15 15 17 18 17 18 19 19 15 20 22
8 8 11 10 8 9 10 5 5 7 4 7 8 8 9 10 8 1 4 1 2 2 2 4 5 6 7 7 8 12 13 15 16 17 17 18 17 15 16 18 16 19 18 18
8 6 6 7 10 9 2 4 9 7 7 7 10 12 14 13 11 8 7 4 5 2 4 5 7 8 9 9 10 13 14 16 17 17 17 18 14 14 13 12 15 16 15 15
5 8 6 2 1 4 5 6 5 7 13 15 13 11 12 16 13 6 3 5 6 5 7 12 16 15 11 11 12 14 15 17 18 19 18 19 16 14 12 12 14 13 14 15
9 10 8 10 7 9 11 11 10 11 13 13 11 14 12 15 10 5 4 4 10 7 5 7 9 11 11 10 11 13 16 17 20 21 21 19 16 17 15 13 18 14 13 16
10 10 10 13 14 14 13 8 11 12 12 14 15 16 15 8 6 7 3 8 13 10 9 8 9 11 12 14 16 17 16 17 16 16 17 16 15 17 16 16 16 13 8 13
9 8 9 9 11 11 10 9 11 12 12 11 11 13 9 4 4 4 1 3 5 8 11 10 12 15 16 17 16 15 12 13 15 17 16 15 16 15 15 16 15 6 15 17
Wind_Direction
205 238 240 27 345 342 332 298 285 296 3 279 271 280 275 249 144 46 44 37 17 19 26 11 359 354 340 319 307 216 216 211 214 210 209 215 214 221 223 223 220 212 209 211
215 206 43 313 302 284 273 265 246 291 237 280 284 265 259 238 91 60 54 52 33 19 21 15 12 360 353 354 340 293 241 217 213 217 220 221 220 223 221 224 223 215 217 214
301 72 81 264 223 268 231 301 342 314 317 269 248 259 223 126 119 88 65 46 47 38 27 20 17 13 7 358 348 342 306 248 221 233 222 225 238 227 221 219 208 216 215 214
45 82 269 259 274 317 294 86 285 283 285 286 0 284 171 155 146 101 52 47 38 43 38 34 29 23 22 15 9 3 11 21 293 234 243 227 222 224 222 219 217 202 204 211
80 211 251 273 4 335 297 341 290 281 274 278 267 238 297 157 145 81 57 51 43 50 47 39 33 26 22 29 31 32 33 36 27 34 266 279 236 262 267 218 137 152 202 214
313 45 271 340 308 267 313 286 281 261 254 252 243 232 100 113 71 76 64 57 51 51 55 54 45 38 33 39 40 36 40 37 37 38 45 58 53 46 64 68 77 56 171 226
177 216 149 277 275 203 251 297 287 247 215 250 111 211 69 103 78 57 55 44 58 55 65 63 49 44 35 34 50 43 39 42 37 39 40 46 50 47 53 57 64 55 47 52
281 199 174 132 328 328 303 304 290 298 290 314 139 237 110 101 91 68 65 80 42 60 70 74 65 50 38 30 23 51 49 42 41 36 37 41 43 42 48 48 49 50 62 44
320 235 119 196 306 312 18 259 14 306 279 263 277 104 141 144 126 81 63 102 54 89 103 93 68 57 47 44 27 29 39 46 47 43 42 42 39 41 41 37 32 15 18 48
14 286 189 103 289 230 265 349 261 211 270 272 261 254 99 160 89 48 5 86 125 122 158 131 89 77 68 61 51 43 41 31 30 34 37 35 32 34 37 39 32 16 4 4
318 257 223 253 223 279 200 231 218 304 301 287 276 289 47 56 89 354 331 338 143 161 193 186 133 81 72 78 78 48 49 26 27 13 11 23 19 17 21 21 23 16 13 5
56 308 276 276 91 303 280 280 295 276 270 248 285 280 61 91 45 310 284 283 178 166 190 211 208 193 44 94 78 56 42 28 9 340 4 12 8 6 5 9 3 356 3 8
71 237 276 244 192 185 254 258 259 269 282 270 280 271 147 179 242 308 304 289 256 186 185 196 215 226 171 146 150 127 82 44 24 341 314 8 7 2 4 356 356 350 346 328
335 271 263 278 304 324 276 249 242 250 267 273 257 263 269 255 326 323 308 311 311 193 190 192 195 209 197 159 158 176 218 201 255 283 303 337 3 351 341 333 342 339 342 331
242 274 278 276 282 288 285 280 271 264 258 259 274 287 299 307 311 317 305 288 281 284 181 188 192 196 210 189 188 206 222 230 250 289 283 336 348 338 323 321 328 327 324 330
239 267 284 281 276 272 276 277 270 272 270 269 273 278 289 281 278 299 330 324 300 289 242 175 127 166 197 196 201 205 246 203 241 260 289 299 307 300 300 308 311 308 308 311
271 263 276 279 292 307 280 276 274 267 257 268 268 283 348 318 310 340 324 313 303 350 50 55 94 183 196 215 204 208 253 292 288 291 304 300 311 308 310 310 304 306 298 301
261 264 266 272 280 270 288 343 299 303 313 302 285 285 275 308 351 309 352 303 341 48 48 21 109 176 172 202 210 245 274 283 295 295 294 310 319 319 314 313 312 313 313 303
224 253 265 259 268 281 294 354 347 312 302 313 255 293 344 342 320 44 14 34 35 57 71 75 88 123 162 221 263 284 295 291 290 298 309 313 313 310 312 314 317 317 308 304
227 227 255 260 250 262 330 84 36 329 272 30 11 357 338 323 289 34 357 96 78 59 43 23 6 333 118 69 333 298 297 307 309 318 320 311 305 307 315 315 314 309 303 300
188 224 226 247 265 272 294 26 75 263 22 347 346 329 318 320 346 59 253 315 114 57 64 326 345 331 30 8 336 313 315 311 316 312 309 305 309 317 303 298 297 301 291 296
251 199 231 240 242 259 55 251 249 9 323 323 305 333 330 320 309 295 331 165 118 37 1 350 316 326 329 317 317 315 316 318 314 312 310 307 311 294 298 309 306 298 300 293
255 266 320 275 346 33 324 286 264 289 302 301 310 307 294 294 300 259 231 16 40 12 349 348 335 321 321 333 334 324 318 317 312 310 307 303 313 324 312 304 303 304 308 300
204 236 241 280 291 307 326 311 285 280 290 303 299 302 298 287 304 346 15 316 303 289 270 278 312 317 318 317 313 314 318 323 317 317 311 317 314 302 308 306 288 287 307 320
296 318 287 283 283 283 280 319 340 325 316 310 295 284 290 11 25 77 49 15 333 318 324 335 319 312 316 324 326 324 326 328 313 304 297 298 311 303 307 303 353 350 354 355
265 277 270 281 334 322 307 318 326 304 285 327 345 314 44 76 93 294 231 228 249 321 316 318 344 350 326 331 334 328 329 319 316 312 318 323 319 330 318 319 320 310 338 324